NOZ320 ENGM-ENAT

Flight info

Callsign NOZ320
Flight time 1h 41m
Altitude 39000
Route RIBBE DCT EGAGO DCT NORTU DCT AMIMO DCT PIDUN DCT BADIX
Aircraft B738/M-SDE2E3FGHIRWXY/LB1

Departure

Time 2026-05-01 08:09
Airport Oslo-Gardermoen International Airport (ENGM)

Arrival

Time 2026-05-01 09:50
Airport Alta Airport (ENAT)
Time Latitude Longitude Altitude Speed Heading
2026-05-01 07:58 60.19532 11.09655 684 ft 0 kts 196°
2026-05-01 08:01 60.19546 11.09663 681 ft 3 kts 196°
2026-05-01 08:01 60.19565 11.09674 684 ft 3 kts 196°
2026-05-01 08:01 60.19574 11.09679 684 ft 0 kts 196°
2026-05-01 08:03 60.19572 11.09695 679 ft 1 kts 78°
2026-05-01 08:04 60.19664 11.09740 683 ft 16 kts 14°
2026-05-01 08:04 60.19952 11.09913 681 ft 15 kts 32°
2026-05-01 08:05 60.19919 11.10381 681 ft 25 kts 106°
2026-05-01 08:05 60.19866 11.10754 680 ft 30 kts 106°
2026-05-01 08:05 60.19807 11.11156 680 ft 29 kts 104°
2026-05-01 08:06 60.19880 11.11547 684 ft 17 kts 16°
2026-05-01 08:06 60.20077 11.11827 684 ft 19 kts 104°
2026-05-01 08:07 60.19985 11.12169 688 ft 8 kts 193°
2026-05-01 08:07 60.19971 11.12162 686 ft 0 kts 195°
2026-05-01 08:08 60.19949 11.12150 687 ft 17 kts 195°
2026-05-01 08:08 60.18718 11.11446 697 ft 155 kts 195°
2026-05-01 08:09 60.16503 11.10194 2081 ft 177 kts 198°
2026-05-01 08:09 60.15199 11.09490 2379 ft 210 kts 193°
2026-05-01 08:09 60.13655 11.09702 2636 ft 236 kts 167°
2026-05-01 08:10 60.10835 11.13290 3735 ft 254 kts 132°
2026-05-01 08:10 60.08675 11.19000 4882 ft 266 kts 107°
2026-05-01 08:11 60.09688 11.25722 5976 ft 264 kts 38°
2026-05-01 08:11 60.13028 11.28178 7023 ft 258 kts
2026-05-01 08:12 60.16636 11.28693 8046 ft 262 kts 358°
2026-05-01 08:12 60.18470 11.28895 8566 ft 265 kts 358°
2026-05-01 08:12 60.22297 11.29294 9340 ft 290 kts 358°
2026-05-01 08:13 60.24347 11.29534 10011 ft 297 kts 359°
2026-05-01 08:13 60.26423 11.29802 10684 ft 304 kts 359°
2026-05-01 08:13 60.30941 11.30401 11254 ft 345 kts 359°
2026-05-01 08:14 60.33363 11.30747 11915 ft 351 kts 359°
2026-05-01 08:14 60.35808 11.31110 12696 ft 353 kts 359°
2026-05-01 08:14 60.38277 11.31481 13477 ft 357 kts 359°
2026-05-01 08:14 60.40765 11.31856 14229 ft 360 kts 359°
2026-05-01 08:15 60.43279 11.32234 14942 ft 364 kts 358°
2026-05-01 08:15 60.48397 11.33006 16414 ft 372 kts 358°
2026-05-01 08:15 60.50990 11.33398 17115 ft 376 kts 358°
2026-05-01 08:16 60.53614 11.33794 17824 ft 380 kts 358°
2026-05-01 08:16 60.56269 11.34195 18551 ft 384 kts 357°
2026-05-01 08:16 60.58948 11.34599 19161 ft 388 kts 357°
2026-05-01 08:16 60.61645 11.35009 19794 ft 391 kts 357°
2026-05-01 08:17 60.64341 11.35422 20403 ft 394 kts 357°
2026-05-01 08:17 60.67085 11.35841 21018 ft 398 kts 357°
2026-05-01 08:17 60.69860 11.36266 21625 ft 401 kts 357°
2026-05-01 08:17 60.72655 11.36693 22220 ft 405 kts 357°
2026-05-01 08:18 60.75478 11.37126 22814 ft 408 kts 357°
2026-05-01 08:18 60.81200 11.38005 23887 ft 416 kts 357°
2026-05-01 08:19 60.87012 11.38902 24842 ft 422 kts 357°
2026-05-01 08:19 60.89950 11.39357 25268 ft 425 kts 357°
2026-05-01 08:19 60.92916 11.39818 25713 ft 428 kts 357°
2026-05-01 08:19 60.95851 11.40274 26152 ft 430 kts 357°
2026-05-01 08:20 60.98842 11.40740 26584 ft 433 kts 357°
2026-05-01 08:20 61.01846 11.41209 27031 ft 435 kts 358°
2026-05-01 08:20 61.04870 11.41682 27463 ft 437 kts 358°
2026-05-01 08:20 61.07915 11.42159 27887 ft 440 kts 358°
2026-05-01 08:21 61.10976 11.42638 28282 ft 443 kts 358°
2026-05-01 08:21 61.14059 11.43123 28681 ft 445 kts 358°
2026-05-01 08:21 61.17157 11.43611 29061 ft 448 kts 358°
2026-05-01 08:21 61.20271 11.44103 29444 ft 450 kts 358°
2026-05-01 08:22 61.23396 11.44597 29813 ft 452 kts 358°
2026-05-01 08:22 61.26552 11.45096 30180 ft 454 kts 358°
2026-05-01 08:22 61.29717 11.45598 30472 ft 457 kts 358°
2026-05-01 08:22 61.32890 11.46103 30769 ft 459 kts 358°
2026-05-01 08:23 61.36077 11.46611 31086 ft 460 kts 358°
2026-05-01 08:23 61.39276 11.47123 31377 ft 462 kts 358°
2026-05-01 08:23 61.42492 11.47638 31681 ft 463 kts 358°
2026-05-01 08:23 61.45659 11.48148 32096 ft 461 kts 357°
2026-05-01 08:24 61.48853 11.48666 32549 ft 459 kts 357°
2026-05-01 08:24 61.52023 11.49181 32951 ft 457 kts 357°
2026-05-01 08:24 61.55196 11.49693 33279 ft 457 kts 357°
2026-05-01 08:24 61.58368 11.50204 33599 ft 457 kts 357°
2026-05-01 08:25 61.61535 11.50715 33977 ft 456 kts 357°
2026-05-01 08:25 61.64691 11.51227 34347 ft 454 kts 357°
2026-05-01 08:25 61.67840 11.51741 34651 ft 454 kts 357°
2026-05-01 08:25 61.70994 11.52254 34903 ft 454 kts 357°
2026-05-01 08:26 61.74141 11.52767 35198 ft 453 kts 357°
2026-05-01 08:26 61.77279 11.53281 35557 ft 452 kts 357°
2026-05-01 08:26 61.80403 11.53796 35889 ft 450 kts 357°
2026-05-01 08:26 61.83522 11.54308 36149 ft 449 kts 358°
2026-05-01 08:27 61.86637 11.54820 36369 ft 450 kts 358°
2026-05-01 08:27 61.89759 11.55333 36623 ft 449 kts 358°
2026-05-01 08:27 61.92873 11.55848 36850 ft 448 kts 358°
2026-05-01 08:27 61.95979 11.56363 37117 ft 447 kts 358°
2026-05-01 08:28 61.99088 11.56878 37352 ft 448 kts 358°
2026-05-01 08:28 62.02196 11.57394 37590 ft 448 kts 358°
2026-05-01 08:28 62.05308 11.57911 37855 ft 448 kts 358°
2026-05-01 08:28 62.08381 11.58423 38028 ft 450 kts 358°
2026-05-01 08:29 62.11503 11.58945 38261 ft 449 kts 358°
2026-05-01 08:29 62.14616 11.59468 38545 ft 447 kts 358°
2026-05-01 08:29 62.17715 11.59990 38778 ft 447 kts 358°
2026-05-01 08:29 62.20812 11.60512 38928 ft 447 kts 358°
2026-05-01 08:30 62.23922 11.61035 39061 ft 448 kts 358°
2026-05-01 08:30 62.30169 11.62088 39140 ft 452 kts 358°
2026-05-01 08:31 62.36425 11.63153 39154 ft 450 kts 358°
2026-05-01 08:31 62.42608 11.64212 39143 ft 447 kts 358°
2026-05-01 08:32 62.48803 11.65276 39137 ft 445 kts 358°
2026-05-01 08:32 62.54967 11.66336 39137 ft 443 kts 358°
2026-05-01 08:33 62.61107 11.67396 39155 ft 442 kts 358°
2026-05-01 08:33 62.67248 11.68460 39168 ft 442 kts 358°
2026-05-01 08:34 62.73382 11.69528 39157 ft 442 kts 358°
2026-05-01 08:34 62.79484 11.70594 39138 ft 443 kts 358°
2026-05-01 08:35 62.85639 11.71675 39145 ft 444 kts 358°
2026-05-01 08:35 62.91814 11.72764 39134 ft 445 kts 358°
2026-05-01 08:36 62.98001 11.73860 39135 ft 447 kts 358°
2026-05-01 08:36 63.04205 11.74963 39132 ft 448 kts 358°
2026-05-01 08:37 63.10431 11.76076 39141 ft 450 kts 358°
2026-05-01 08:37 63.16682 11.77198 39130 ft 451 kts 358°
2026-05-01 08:38 63.22898 11.78319 39131 ft 451 kts 358°
2026-05-01 08:38 63.29159 11.79453 39140 ft 452 kts 358°
2026-05-01 08:39 63.35369 11.80934 39128 ft 459 kts
2026-05-01 08:39 63.41425 11.85374 39139 ft 466 kts 14°
2026-05-01 08:40 63.50543 11.93032 39138 ft 466 kts 14°
2026-05-01 08:40 63.56632 11.98070 39175 ft 466 kts 14°
2026-05-01 08:41 63.62741 12.03076 39152 ft 467 kts 14°
2026-05-01 08:41 63.68848 12.08086 39141 ft 467 kts 14°
2026-05-01 08:42 63.74961 12.13125 39143 ft 468 kts 14°
2026-05-01 08:42 63.81084 12.18199 39154 ft 468 kts 14°
2026-05-01 08:43 63.87163 12.23262 39165 ft 467 kts 14°
2026-05-01 08:43 63.93274 12.28376 39150 ft 469 kts 14°
2026-05-01 08:44 63.99405 12.33529 39125 ft 470 kts 14°
2026-05-01 08:44 64.05530 12.38700 39140 ft 470 kts 14°
2026-05-01 08:45 64.11674 12.43914 39132 ft 471 kts 14°
2026-05-01 08:45 64.17824 12.49159 39131 ft 472 kts 14°
2026-05-01 08:46 64.23971 12.54426 39132 ft 472 kts 14°
2026-05-01 08:46 64.30089 12.59691 39134 ft 472 kts 14°
2026-05-01 08:47 64.36242 12.65012 39133 ft 472 kts 14°
2026-05-01 08:47 64.41404 12.69496 39133 ft 472 kts 14°
2026-05-01 08:48 64.47516 12.74827 39132 ft 473 kts 15°
2026-05-01 08:48 64.53687 12.80237 39141 ft 473 kts 15°
2026-05-01 08:49 64.59856 12.85671 39126 ft 474 kts 15°
2026-05-01 08:49 64.66022 12.91130 39128 ft 474 kts 15°
2026-05-01 08:50 64.72143 12.96575 39125 ft 474 kts 15°
2026-05-01 08:50 64.78249 13.02031 39127 ft 474 kts 15°
2026-05-01 08:51 64.84421 13.07576 39115 ft 474 kts 15°
2026-05-01 08:51 64.90583 13.13139 39120 ft 474 kts 15°
2026-05-01 08:52 64.96732 13.18719 39117 ft 473 kts 15°
2026-05-01 08:52 65.02877 13.24318 39135 ft 473 kts 15°
2026-05-01 08:53 65.09021 13.29947 39128 ft 474 kts 15°
2026-05-01 08:53 65.15178 13.35615 39117 ft 473 kts 15°
2026-05-01 08:54 65.21279 13.41259 39105 ft 474 kts 15°
2026-05-01 08:54 65.27436 13.46983 39089 ft 474 kts 16°
2026-05-01 08:55 65.33587 13.52733 39121 ft 474 kts 16°
2026-05-01 08:55 65.39724 13.58498 39094 ft 474 kts 16°
2026-05-01 08:56 65.45878 13.64307 39089 ft 474 kts 16°
2026-05-01 08:56 65.51837 13.69961 39079 ft 475 kts 16°
2026-05-01 08:57 65.57989 13.75827 39072 ft 475 kts 16°
2026-05-01 08:57 65.64142 13.81724 39091 ft 476 kts 16°
2026-05-01 08:58 65.70301 13.87658 39076 ft 477 kts 16°
2026-05-01 08:58 65.76465 13.93624 39062 ft 477 kts 16°
2026-05-01 08:59 65.82597 13.99925 39059 ft 479 kts 18°
2026-05-01 08:59 65.88612 14.06569 39053 ft 480 kts 19°
2026-05-01 09:00 65.94664 14.13296 39071 ft 482 kts 19°
2026-05-01 09:00 66.00773 14.20052 39043 ft 482 kts 19°
2026-05-01 09:01 66.06901 14.26827 39047 ft 483 kts 19°
2026-05-01 09:01 66.13029 14.33632 39031 ft 483 kts 19°
2026-05-01 09:02 66.19160 14.40478 39020 ft 483 kts 19°
2026-05-01 09:02 66.25283 14.47355 39025 ft 483 kts 19°
2026-05-01 09:03 66.31406 14.54270 39026 ft 483 kts 19°
2026-05-01 09:03 66.37523 14.61214 39027 ft 483 kts 19°
2026-05-01 09:04 66.43643 14.68199 39020 ft 483 kts 19°
2026-05-01 09:04 66.49713 14.75166 39021 ft 483 kts 19°
2026-05-01 09:05 66.55822 14.82213 39020 ft 484 kts 19°
2026-05-01 09:05 66.61929 14.89297 39005 ft 483 kts 19°
2026-05-01 09:06 66.68031 14.96415 38993 ft 482 kts 19°
2026-05-01 09:06 66.74041 15.03464 38978 ft 482 kts 19°
2026-05-01 09:07 66.80123 15.10635 38985 ft 482 kts 19°
2026-05-01 09:07 66.86211 15.17851 38967 ft 483 kts 19°
2026-05-01 09:08 66.92296 15.25106 38985 ft 483 kts 20°
2026-05-01 09:08 66.98387 15.32407 38972 ft 484 kts 20°
2026-05-01 09:09 67.04430 15.39691 38985 ft 485 kts 20°
2026-05-01 09:09 67.10544 15.47102 38956 ft 487 kts 20°
2026-05-01 09:10 67.16663 15.54562 38967 ft 487 kts 20°
2026-05-01 09:10 67.22786 15.62070 38970 ft 488 kts 20°
2026-05-01 09:11 67.28919 15.69631 38970 ft 489 kts 20°
2026-05-01 09:11 67.35058 15.77242 38957 ft 489 kts 20°
2026-05-01 09:12 67.41199 15.84903 38963 ft 488 kts 20°
2026-05-01 09:12 67.47310 15.92570 38953 ft 486 kts 20°
2026-05-01 09:13 67.53340 16.00179 38949 ft 484 kts 20°
2026-05-01 09:13 67.59376 16.07836 38937 ft 482 kts 20°
2026-05-01 09:14 67.65404 16.15526 38934 ft 480 kts 20°
2026-05-01 09:14 67.71361 16.23170 38927 ft 479 kts 20°
2026-05-01 09:15 67.77346 16.30892 38928 ft 479 kts 20°
2026-05-01 09:15 67.83324 16.38648 38918 ft 479 kts 20°
2026-05-01 09:16 67.89164 16.47259 38912 ft 487 kts 33°
2026-05-01 09:17 67.97061 16.64473 38914 ft 491 kts 36°
2026-05-01 09:17 68.04954 16.81976 38896 ft 494 kts 36°
2026-05-01 09:18 68.12896 16.99469 38882 ft 495 kts 36°
2026-05-01 09:19 68.20814 17.17053 38891 ft 495 kts 36°
2026-05-01 09:20 68.28757 17.34865 38878 ft 494 kts 36°
2026-05-01 09:21 68.39312 17.58797 38852 ft 493 kts 37°
2026-05-01 09:21 68.47132 17.76727 38836 ft 491 kts 36°
2026-05-01 09:22 68.52350 17.88781 38638 ft 494 kts 36°
2026-05-01 09:22 68.57553 18.00869 37485 ft 496 kts 36°
2026-05-01 09:23 68.60177 18.06995 36741 ft 497 kts 36°
2026-05-01 09:23 68.65440 18.19301 35485 ft 497 kts 36°
2026-05-01 09:24 68.70677 18.31623 34486 ft 493 kts 36°
2026-05-01 09:24 68.73268 18.37751 34046 ft 490 kts 36°
2026-05-01 09:24 68.78250 18.50735 32743 ft 493 kts 42°
2026-05-01 09:25 68.82930 18.64495 31742 ft 488 kts 43°
2026-05-01 09:25 68.87527 18.78128 30815 ft 481 kts 42°
2026-05-01 09:26 68.89785 18.84763 30389 ft 476 kts 41°
2026-05-01 09:26 68.94310 18.97996 29415 ft 468 kts 41°
2026-05-01 09:26 68.96500 19.04399 28955 ft 464 kts 41°
2026-05-01 09:27 69.00895 19.17306 28012 ft 455 kts 41°
2026-05-01 09:27 69.03060 19.23695 27553 ft 450 kts 40°
2026-05-01 09:27 69.05206 19.30049 27103 ft 446 kts 41°
2026-05-01 09:28 69.07323 19.36338 26671 ft 442 kts 40°
2026-05-01 09:28 69.09417 19.42580 26245 ft 438 kts 41°
2026-05-01 09:28 69.11498 19.48798 25846 ft 435 kts 41°
2026-05-01 09:28 69.13564 19.54989 25359 ft 434 kts 41°
2026-05-01 09:29 69.17655 19.67308 24497 ft 428 kts 41°
2026-05-01 09:29 69.19672 19.73411 24095 ft 424 kts 41°
2026-05-01 09:30 69.23670 19.85554 23174 ft 421 kts 41°
2026-05-01 09:30 69.25628 19.91527 22681 ft 419 kts 41°
2026-05-01 09:30 69.29502 20.03402 21824 ft 412 kts 41°
2026-05-01 09:31 69.31436 20.09354 21395 ft 409 kts 41°
2026-05-01 09:31 69.33354 20.15277 20994 ft 406 kts 41°
2026-05-01 09:31 69.37137 20.27005 20178 ft 397 kts 42°
2026-05-01 09:32 69.38983 20.32754 19773 ft 394 kts 42°
2026-05-01 09:32 69.42664 20.44247 18952 ft 392 kts 42°
2026-05-01 09:32 69.44473 20.49918 18542 ft 391 kts 42°
2026-05-01 09:33 69.46291 20.55640 18104 ft 387 kts 43°
2026-05-01 09:33 69.48086 20.61307 17656 ft 385 kts 43°
2026-05-01 09:33 69.51642 20.72571 16842 ft 379 kts 43°
2026-05-01 09:34 69.53399 20.78158 16459 ft 376 kts 43°
2026-05-01 09:34 69.55142 20.83715 16076 ft 375 kts 43°
2026-05-01 09:34 69.58608 20.94810 15289 ft 372 kts 43°
2026-05-01 09:35 69.60297 21.00240 14893 ft 370 kts 43°
2026-05-01 09:35 69.63692 21.11193 14151 ft 367 kts 43°
2026-05-01 09:35 69.65388 21.16685 13772 ft 367 kts 44°
2026-05-01 09:36 69.67078 21.22172 13293 ft 367 kts 43°
2026-05-01 09:36 69.68741 21.27588 12921 ft 363 kts 44°
2026-05-01 09:36 69.70407 21.33032 12544 ft 361 kts 44°
2026-05-01 09:36 69.71990 21.38212 12179 ft 360 kts 44°
2026-05-01 09:37 69.73086 21.41805 11917 ft 359 kts 44°
2026-05-01 09:37 69.76370 21.52618 11180 ft 355 kts 44°
2026-05-01 09:37 69.77998 21.57993 10758 ft 354 kts 44°
2026-05-01 09:38 69.81116 21.68357 10087 ft 330 kts 43°
2026-05-01 09:38 69.82593 21.73283 9943 ft 317 kts 43°
2026-05-01 09:38 69.84026 21.78066 9782 ft 311 kts 43°
2026-05-01 09:39 69.86844 21.87475 9244 ft 311 kts 43°
2026-05-01 09:39 69.88263 21.92230 8952 ft 312 kts 44°
2026-05-01 09:39 69.89682 21.96995 8653 ft 313 kts 44°
2026-05-01 09:40 69.91073 22.01683 8327 ft 309 kts 44°
2026-05-01 09:40 69.93816 22.10980 7765 ft 298 kts 44°
2026-05-01 09:40 69.95165 22.15559 7477 ft 297 kts 44°
2026-05-01 09:41 69.96509 22.20128 7186 ft 295 kts 44°
2026-05-01 09:41 69.99135 22.29096 6624 ft 285 kts 45°
2026-05-01 09:41 70.00399 22.33420 6465 ft 275 kts 45°
2026-05-01 09:42 70.01626 22.37635 6244 ft 264 kts 45°
2026-05-01 09:42 70.02780 22.41617 6061 ft 249 kts 44°
2026-05-01 09:42 70.04821 22.48667 5887 ft 206 kts 44°
2026-05-01 09:43 70.06627 22.54884 5663 ft 196 kts 43°
2026-05-01 09:43 70.07482 22.57850 5490 ft 181 kts 43°
2026-05-01 09:43 70.08273 22.60600 5155 ft 175 kts 44°
2026-05-01 09:44 70.09857 22.66091 5023 ft 179 kts 44°
2026-05-01 09:44 70.10441 22.69341 4967 ft 183 kts 79°
2026-05-01 09:44 70.10444 22.73032 4905 ft 183 kts 103°
2026-05-01 09:45 70.09999 22.76472 4753 ft 177 kts 122°
2026-05-01 09:45 70.08806 22.82496 4443 ft 167 kts 124°
2026-05-01 09:45 70.08216 22.85425 4280 ft 167 kts 124°
2026-05-01 09:46 70.07626 22.88348 4155 ft 167 kts 124°
2026-05-01 09:46 70.07072 22.91337 4032 ft 167 kts 120°
2026-05-01 09:46 70.06523 22.94304 3937 ft 165 kts 123°
2026-05-01 09:46 70.05935 22.97216 3679 ft 166 kts 124°
2026-05-01 09:47 70.05342 23.00070 3409 ft 163 kts 124°
2026-05-01 09:47 70.04766 23.02824 3133 ft 158 kts 124°
2026-05-01 09:47 70.04197 23.05538 2858 ft 156 kts 124°
2026-05-01 09:47 70.03636 23.08218 2573 ft 155 kts 124°
2026-05-01 09:48 70.03066 23.10942 2300 ft 154 kts 124°
2026-05-01 09:48 70.02508 23.13613 2026 ft 153 kts 124°
2026-05-01 09:48 70.01965 23.16211 1781 ft 151 kts 123°
2026-05-01 09:48 70.01416 23.18846 1538 ft 152 kts 124°
2026-05-01 09:49 70.00869 23.21470 1313 ft 150 kts 123°
2026-05-01 09:49 70.00324 23.24081 1053 ft 150 kts 124°
2026-05-01 09:49 69.99785 23.26675 782 ft 148 kts 123°
2026-05-01 09:49 69.99251 23.29241 558 ft 147 kts 123°
2026-05-01 09:50 69.98720 23.31792 314 ft 147 kts 123°
2026-05-01 09:50 69.98206 23.34319 72 ft 143 kts 124°
2026-05-01 09:50 69.97716 23.36655 20 ft 120 kts 121°
2026-05-01 09:50 69.97461 23.37841 23 ft 8 kts 143°
2026-05-01 09:51 69.97452 23.37896 21 ft 4 kts 75°
2026-05-01 09:51 69.97463 23.37898 21 ft 2 kts 337°
2026-05-01 09:51 69.97488 23.37754 22 ft 14 kts 295°
2026-05-01 09:51 69.97566 23.37397 20 ft 28 kts 298°
2026-05-01 09:52 69.97681 23.36823 22 ft 35 kts 301°
2026-05-01 09:52 69.97806 23.36225 18 ft 34 kts 300°
2026-05-01 09:52 69.97920 23.35668 19 ft 21 kts 301°
2026-05-01 09:52 69.97926 23.35370 20 ft 16 kts 224°
2026-05-01 09:53 69.97867 23.35117 19 ft 15 kts 261°
2026-05-01 09:53 69.97884 23.34840 19 ft 13 kts 236°
2026-05-01 09:53 69.97837 23.34740 19 ft 0 kts 211°